Location: Unspecified
(0.0000°N, 0.0000°E)
Time: 20:53:04
(UTC+00:00)

Vanguard 1 - Visible Passes

Search period start: 14 July 2020 00:00
Search period end: 24 July 2020 00:00
Orbit: 649 x 3833 km, 34.2° (Epoch: 14 July)

Date Brightness Start Highest point End Pass type
(mag) Time Alt. Az. Time Alt. Az. Time Alt. Az.
14 Jul 12.8 02:20:18 24° SE 02:20:18 24° SE 02:25:02 10° SE visible
14 Jul 12.1 04:33:04 27° SW 04:36:35 32° SSW 04:51:11 10° SE visible
15 Jul 12.6 02:40:43 26° SE 02:40:43 26° SE 02:46:27 10° SE visible
15 Jul 12.4 04:53:28 19° SW 04:58:53 25° SSW 05:12:20 10° SSE visible
16 Jul 12.5 03:01:01 27° SSE 03:01:01 27° SSE 03:07:37 10° SE visible
16 Jul 12.7 05:13:47 12° SW 05:21:29 20° SSW 05:33:41 10° SSE visible
17 Jul 12.5 03:21:15 26° SSE 03:21:15 26° SSE 03:28:35 10° SE visible
17 Jul 13.0 05:36:06 10° SW 05:44:25 17° S 05:55:29 10° SSE visible
18 Jul 12.6 03:41:23 23° S 03:41:23 23° S 03:49:26 10° SSE visible
19 Jul 12.7 04:01:27 19° S 04:01:27 19° S 04:10:14 10° SSE visible
20 Jul 12.8 04:21:27 15° SSW 04:23:24 15° S 04:31:08 10° SSE visible
21 Jul 13.0 04:41:24 10° SSW 04:46:10 13° S 04:52:24 10° SSE visible
22 Jul 13.1 05:04:31 10° SSW 05:09:11 12° S 05:14:41 10° SSE visible
23 Jul 13.2 05:26:57 10° SSW 05:32:23 12° S 05:38:48 10° SSE visible
